Location: Monfort
(47.1967°N, 0.2115°W)
Time: 04:17:56
(UTC+00:00)

CRYOSAT 2 - Pass Details

Date: 24 October 2020
Orbit: 715 x 724 km, 92.0° (Epoch: 01 December)

Event Time Altitude Azimuth Distance (km) Brightness Sun altitude
Rises 18:37:24 0° 9° (N) 3,135 7.6 -17.7°
Reaches altitude 10° 18:39:46 10° 14° (NNE) 2,209 6.8 -18.1°
Maximum altitude 18:44:31 51° 91° (E) 899 4.4 -18.9°
Drops below altitude 10° 18:49:14 10° 167° (SSE) 2,191 6.7 -19.7°
Sets 18:51:34 0° 172° (S) 3,106 7.5 -20.1°
